Time,TemperatureF,DewpointF,PressureIn,WindDirection,WindDirectionDegrees,WindSpeedMPH,WindSpeedGustMPH,Humidity,HourlyPrecipIn,Conditions,Clouds,dailyrainin,SolarRadiationWatts/m^2,SoftwareType,DateUTC
2013-02-16 00:50:00,20.0,15.0,30.41,SSE,165,4.0,9.0,82,-99.99,,,-99.99,0.000000,,2013-02-16 08:50:00,
2013-02-16 01:50:00,13.0,10.0,30.39,South,170,4.0,6.0,88,-99.99,,,-99.99,0.000000,,2013-02-16 09:50:00,
2013-02-16 02:50:00,14.0,10.0,30.37,South,186,4.0,6.0,85,-99.99,,,-99.99,0.000000,,2013-02-16 10:50:00,
2013-02-16 03:50:00,14.0,10.0,30.36,South,171,3.0,6.0,85,-99.99,,,-99.99,0.000000,,2013-02-16 11:50:00,
2013-02-16 05:50:00,10.0,7.0,30.35,SSE,161,5.0,9.0,87,-99.99,,,-99.99,0.000000,,2013-02-16 13:50:00,
2013-02-16 06:50:00,11.0,7.0,30.34,South,178,5.0,10.0,82,-99.99,,,-99.99,10.000000,,2013-02-16 14:50:00,
2013-02-16 08:50:00,31.0,17.0,30.34,SSW,193,6.0,9.0,57,-99.99,,,-99.99,430.000000,,2013-02-16 16:50:00,
2013-02-16 09:50:00,39.0,14.0,30.32,South,187,2.0,5.0,35,-99.99,,,-99.99,580.000000,,2013-02-16 17:50:00,
2013-02-16 10:50:00,47.0,14.0,30.29,SSW,206,1.0,3.0,26,-99.99,,,-99.99,690.000000,,2013-02-16 18:50:00,
2013-02-16 11:50:00,52.0,7.0,30.25,South,188,4.0,6.0,16,-99.99,,,-99.99,700.000000,,2013-02-16 19:50:00,
2013-02-16 12:50:00,54.0,8.0,30.20,SSW,194,2.0,5.0,15,-99.99,,,-99.99,680.000000,,2013-02-16 20:50:00,
2013-02-16 13:50:00,56.0,6.0,30.16,South,173,4.0,7.0,13,-99.99,,,-99.99,570.000000,,2013-02-16 21:50:00,
2013-02-16 14:50:00,52.0,16.0,30.13,SE,139,7.0,10.0,23,-99.99,,,-99.99,280.000000,,2013-02-16 22:50:00,
2013-02-16 15:50:00,52.0,12.0,30.12,South,171,7.0,12.0,20,-99.99,,,-99.99,270.000000,,2013-02-16 23:50:00,
2013-02-16 16:50:00,42.0,13.0,30.11,SE,145,6.0,11.0,30,-99.99,,,-99.99,40.000000,,2013-02-17 00:50:00,
2013-02-16 17:50:00,39.0,13.0,30.11,ESE,119,8.0,11.0,34,-99.99,,,-99.99,0.000000,,2013-02-17 01:50:00,
2013-02-16 18:50:00,38.0,16.0,30.10,SSE,159,4.0,8.0,41,-99.99,,,-99.99,0.000000,,2013-02-17 02:50:00,
2013-02-16 19:50:00,34.0,18.0,30.09,South,169,5.0,8.0,52,-99.99,,,-99.99,0.000000,,2013-02-17 03:50:00,
2013-02-16 20:50:00,33.0,18.0,30.08,SSE,153,6.0,9.0,53,-99.99,,,-99.99,0.000000,,2013-02-17 04:50:00,
2013-02-16 22:50:00,30.0,18.0,30.04,South,170,6.0,9.0,60,-99.99,,,-99.99,0.000000,,2013-02-17 06:50:00,
2013-02-16 23:50:00,28.0,17.0,30.02,SSE,149,5.0,9.0,63,-99.99,,,-99.99,0.000000,,2013-02-17 07:50:00,